Hourly Data Report for October 25, 2015

All times are specified in Local Standard Time (LST). Add 1 hour to adjust for Daylight Saving Time where and when it is observed.

TORONTO INTL A
ONTARIO

43°40'36.000" N
79°37'50.000" W
173.40 m
6158731
71624
YYZ

Download Data

Hourly Data (October 2015)
Hourly Data Report for October 25, 2015
Temp Definition
°C
Dew Point Temp Definition
°C
Rel Hum Definition
%
Wind Dir Definition
10's deg

Wind Spd Definition
km/h
Visibility Definition
km
Stn Press Definition
kPa
Hmdx Definition


Wind Chill Definition


Weather Definition


TIME
00:00 Legend Double Dagger 15.5 12.5 82 25 27 24.1 98.75     LegendNANA
01:00 Legend Double Dagger 12.0 8.7 80 30 24 24.1 98.92     Mostly Cloudy
02:00 Legend Double Dagger 10.8 7.9 82 30 34 24.1 99.12     LegendNANA
03:00 Legend Double Dagger 10.4 6.8 78 28 26 24.1 99.24     LegendNANA
04:00 Legend Double Dagger 9.5 5.7 77 29 27 24.1 99.28     Mostly Cloudy
05:00 Legend Double Dagger 9.1 5.7 79 29 30 24.1 99.41     LegendNANA
06:00 Legend Double Dagger 9.6 5.6 76 30 27 24.1 99.57     LegendNANA
07:00 Legend Double Dagger 9.2 5.0 75 31 27 16.1 99.71     Mostly Cloudy
08:00 Legend Double Dagger 9.0 3.2 67 31 29 24.1 99.86     LegendNANA
09:00 Legend Double Dagger 9.8 3.1 63 30 24 24.1 99.99     LegendNANA
10:00 Legend Double Dagger 10.5 3.1 60 31 20 24.1 100.08     Mostly Cloudy
11:00 Legend Double Dagger 12.4 2.3 50 30 28 24.1 100.15     LegendNANA
12:00 Legend Double Dagger 12.3 2.2 50 31 27 24.1 100.20     LegendNANA
13:00 Legend Double Dagger 12.6 2.8 51 31 27 24.1 100.19     Mainly Clear
14:00 Legend Double Dagger 12.4 1.5 47 30 30 24.1 100.20     LegendNANA
15:00 Legend Double Dagger 12.9 1.9 47 30 23 24.1 100.24     LegendNANA
16:00 Legend Double Dagger 12.3 1.4 47 29 21 24.1 100.30     Mainly Clear
17:00 Legend Double Dagger 11.3 1.3 50 31 23 24.1 100.39     LegendNANA
18:00 Legend Double Dagger 9.4 1.6 58 32 22 24.1 100.51     LegendNANA
19:00 Legend Double Dagger 8.1 1.7 64 32 17 24.1 100.60     Clear
20:00 Legend Double Dagger 7.2 1.5 67 31 16 24.1 100.69     LegendNANA
21:00 Legend Double Dagger 6.5 1.4 70 36 10 24.1 100.73     LegendNANA
22:00 Legend Double Dagger 6.0 3.0 81 36 13 24.1 100.75     Clear
23:00 Legend Double Dagger 4.8 2.2 83 2 8 24.1 100.77     LegendNANA

Notes on Data Quality.

Legend

  • E = Estimated
  • M = Missing
  • NA = Not Available
  • ‡ = Partner data that is not subject to review by the National Climate Archives
Date modified: